Wind_Speed
21 21 22 23 23 23 23 24 24 24 25 25 25 25 24 24 23 22 22 22 22 21 20 19 18 18 17 15 15 15 16 17 18 19 19 20 19 18 19 19 18 17 17 17 17 18 18 17 15 15 14 13 13 12 11 10 9 7 5 2 2 3 2 2 1 4 8 8 7 9 10 9 9 10 8 6 6 6 6 7 6 4 6 9 8 7 9 10
21 21 22 23 23 23 24 24 24 24 25 25 25 25 25 24 24 24 23 23 23 23 22 21 21 20 18 17 16 16 16 16 17 17 18 20 20 20 19 19 18 18 18 19 19 19 19 18 17 17 16 15 14 13 13 12 10 8 6 5 3 2 0 1 1 2 6 7 7 10 11 10 10 11 10 8 7 6 5 6 6 4 5 8 9 7 9 10
24 23 23 23 23 24 24 24 24 24 24 25 25 25 25 25 24 24 24 24 24 24 23 23 23 22 21 19 18 18 16 16 16 17 17 19 21 21 20 19 19 18 19 19 18 17 18 18 17 17 16 16 16 15 14 12 10 9 7 7 6 4 2 1 2 2 5 5 7 10 10 10 10 10 10 9 7 5 5 5 5 4 4 8 9 7 9 10
26 26 26 25 24 24 24 24 24 25 25 25 25 25 25 25 24 24 24 25 25 24 24 25 25 24 23 22 21 20 18 17 17 16 17 18 20 21 21 20 19 19 19 18 16 15 15 16 17 17 16 17 17 17 16 13 11 10 9 9 8 7 3 1 2 4 6 8 9 10 9 11 10 9 10 10 7 5 5 4 4 3 2 7 10 8 9 9
28 28 28 28 27 26 26 25 25 25 25 25 25 25 25 25 24 24 24 25 25 25 24 25 25 25 25 24 23 22 21 20 18 17 17 18 19 21 21 21 21 20 19 18 16 14 14 15 17 17 16 16 17 17 16 14 13 11 11 10 10 9 6 2 3 5 8 9 10 9 9 11 11 10 10 9 7 6 7 5 3 3 1 5 9 8 9 9
29 30 30 30 30 30 29 27 27 26 26 26 26 25 25 25 24 24 24 24 24 24 24 25 25 26 25 25 24 24 23 22 20 19 18 18 18 20 21 22 22 21 20 18 17 16 15 15 16 17 16 16 18 18 15 14 14 13 12 12 11 11 8 4 3 5 9 9 8 9 10 10 11 11 10 8 7 6 8 6 4 3 1 4 7 7 9 10
31 31 31 31 31 32 31 31 29 28 28 27 27 26 26 25 24 24 24 24 23 23 23 24 25 26 26 25 25 25 24 23 22 21 21 19 18 19 20 21 23 23 22 20 18 18 17 15 16 18 19 20 20 19 17 16 16 16 15 14 13 13 11 8 5 6 9 8 7 8 10 10 10 10 9 8 7 6 7 6 5 4 2 2 6 7 9 10
32 33 33 33 33 33 33 33 32 31 30 29 28 28 27 26 25 24 24 24 23 23 23 23 24 25 25 25 25 26 25 24 24 24 23 21 20 19 19 20 23 25 23 22 20 19 18 18 17 17 19 22 23 22 23 22 21 20 18 17 16 15 15 13 9 8 9 9 9 9 8 7 7 8 9 8 8 8 7 6 5 5 1 2 5 7 8 9
33 34 34 34 34 34 34 34 34 34 33 32 30 30 29 28 27 25 25 24 24 23 23 23 23 24 24 24 24 25 26 25 25 25 24 23 21 20 19 20 22 24 24 23 22 20 20 20 19 20 22 24 25 25 25 25 24 22 20 18 17 15 15 15 12 10 9 9 9 8 6 4 6 8 9 8 7 8 7 6 5 4 2 2 4 7 8 9
33 34 34 34 34 34 34 34 35 35 35 34 33 31 30 30 29 28 27 26 25 24 24 24 23 23 23 23 23 24 26 26 26 25 24 24 23 22 21 20 21 21 23 24 24 24 25 24 23 23 23 22 23 24 24 24 23 22 20 18 16 14 14 15 14 11 9 9 9 8 6 7 9 10 8 7 6 7 7 6 6 5 3 2 3 6 8 9
33 34 34 35 34 33 33 34 35 35 36 35 35 34 32 31 30 30 29 28 27 26 26 25 24 24 24 23 23 23 24 25 25 25 24 24 24 24 22 21 21 20 22 25 27 28 27 26 25 23 21 20 19 21 22 23 22 21 19 18 16 14 13 14 14 11 8 7 7 7 6 7 10 9 7 5 5 5 6 6 5 4 3 2 2 5 7 8
31 32 33 34 35 33 32 33 34 34 35 36 36 35 34 32 31 30 30 30 29 28 27 26 26 25 25 24 24 23 24 25 25 24 23 24 24 24 24 22 21 20 22 25 28 29 28 27 25 24 21 18 16 17 20 22 21 20 20 19 17 14 13 14 14 12 9 8 7 6 6 5 6 8 7 5 4 4 4 5 4 4 3 3 2 3 6 7
27 28 30 32 34 34 32 31 32 33 34 35 36 36 35 34 33 31 31 30 30 29 29 28 27 27 26 26 25 24 24 25 25 23 22 23 24 24 24 24 22 22 23 25 27 28 29 27 26 26 22 18 15 16 17 18 19 20 20 20 19 16 14 15 14 12 11 11 10 8 7 5 6 8 8 6 5 4 4 4 3 3 3 3 3 2 4 6
25 26 27 28 30 33 33 31 30 31 32 34 35 35 35 35 34 33 32 31 31 30 30 29 28 28 27 27 26 26 25 25 25 24 21 22 23 23 24 24 23 24 24 24 24 25 27 27 28 26 23 20 18 16 14 14 15 18 20 21 20 17 15 15 14 13 12 12 11 10 8 8 8 9 9 8 7 5 5 4 2 2 3 3 3 2 3 5
25 26 26 27 27 29 32 31 29 29 30 32 33 33 34 35 36 35 33 32 32 31 31 30 29 29 28 28 27 27 27 26 27 26 22 22 22 22 23 24 24 25 25 24 23 23 25 27 28 26 24 24 20 17 15 13 13 14 17 19 18 18 17 15 15 14 13 12 11 9 8 8 8 9 9 9 8 6 6 5 4 2 2 3 3 2 2 4
26 26 27 27 26 26 29 30 28 27 28 29 30 31 33 34 35 35 34 33 33 33 32 31 31 30 29 29 29 28 28 28 28 27 25 23 23 22 23 23 24 25 26 25 24 24 24 25 26 26 26 25 22 20 18 16 15 13 14 15 15 17 17 16 16 16 15 13 12 10 8 8 10 10 8 8 7 6 5 6 5 4 2 2 2 2 2 3
27 27 26 27 26 26 26 28 27 26 27 28 29 29 31 32 33 34 35 34 33 33 33 32 32 31 30 30 30 30 29 29 29 28 27 25 24 24 23 23 24 24 25 26 26 25 23 23 24 26 27 26 24 24 22 20 18 15 14 13 14 16 17 19 19 18 16 16 15 13 10 9 11 12 10 8 7 6 6 7 5 5 3 1 3 3 2 2
27 27 27 26 26 25 25 26 26 25 25 27 28 28 29 30 31 33 34 34 34 33 33 33 32 32 32 32 32 31 30 30 29 29 28 26 26 26 24 24 24 24 25 25 25 24 24 24 24 25 25 25 25 25 24 23 22 20 18 17 18 19 19 20 22 21 19 19 19 17 14 11 12 13 12 10 8 6 5 8 6 5 5 2 2 5 4 3
27 27 27 27 26 25 24 24 25 25 25 26 26 27 28 29 30 31 32 33 34 33 33 32 33 33 33 33 33 33 32 31 30 30 29 27 26 26 26 26 25 25 24 24 24 24 24 25 25 23 22 23 25 26 25 25 26 25 24 22 21 21 22 22 23 23 23 22 20 18 17 16 14 13 13 12 9 6 3 6 7 6 6 5 3 4 5 5
27 27 27 27 26 25 25 24 24 25 25 25 26 26 27 28 29 30 31 32 33 33 33 33 33 33 34 34 34 34 33 32 32 31 31 29 28 27 27 26 26 26 25 24 24 23 24 25 24 22 21 23 25 27 28 28 29 29 28 26 23 22 22 23 24 24 24 23 20 20 20 19 16 15 14 13 11 7 2 3 7 9 9 8 6 5 6 7
27 27 27 27 26 25 24 24 23 24 25 25 25 26 27 28 28 29 30 31 32 33 33 33 33 33 33 34 34 34 34 34 33 33 32 31 30 29 28 27 26 26 26 26 25 24 24 22 21 23 25 26 26 28 30 31 31 31 31 30 27 23 21 22 22 22 24 23 22 23 21 19 18 17 16 15 13 9 4 2 7 10 12 11 9 7 8 8
27 27 26 27 26 24 24 23 22 22 23 24 25 26 27 27 28 28 29 29 30 31 32 32 33 33 33 34 34 34 34 34 34 34 33 32 31 31 30 29 28 27 27 27 26 25 23 20 20 24 27 28 27 27 29 31 32 32 32 32 29 25 23 23 21 21 22 22 23 24 23 22 22 21 19 18 16 12 7 4 8 11 12 12 11 10 10 8
27 26 25 26 25 23 23 22 21 20 21 22 24 25 25 25 27 28 28 29 29 30 31 32 33 33 33 34 34 33 33 34 35 35 34 34 33 32 32 31 31 30 29 28 27 25 22 20 22 25 26 27 28 28 29 31 31 31 31 29 27 27 27 24 22 23 24 23 22 23 24 27 27 25 23 20 19 15 10 7 8 10 12 13 13 12 11 9
25 25 25 26 25 22 22 21 20 19 19 21 23 24 23 24 25 27 27 28 28 29 29 30 31 31 32 33 34 34 33 34 34 34 35 35 35 34 34 33 33 32 31 30 29 26 24 25 27 27 26 26 28 29 30 30 30 30 29 26 25 28 29 26 25 27 26 24 23 22 24 26 27 26 24 21 19 15 12 9 8 9 12 14 14 11 10 9
25 24 23 25 25 22 21 20 19 18 19 21 22 21 21 22 23 24 25 26 27 28 28 28 29 30 31 32 33 34 33 33 34 34 35 35 36 36 35 35 34 34 34 33 32 30 28 29 29 28 27 27 27 28 30 30 29 29 28 25 25 29 30 28 29 30 29 27 25 23 22 21 22 25 25 22 18 14 12 11 9 9 12 14 14 12 10 9
25 24 22 23 24 22 20 19 18 18 19 20 20 18 18 20 21 22 23 24 25 26 27 27 28 29 30 31 32 33 32 32 33 33 34 35 36 36 36 36 36 36 36 35 34 33 31 31 30 29 29 29 28 27 28 30 30 28 26 25 26 29 31 32 32 33 32 31 29 26 23 20 19 23 24 21 18 14 11 11 10 9 11 12 14 13 12 10
24 23 21 21 22 21 18 16 16 17 17 17 17 17 17 18 19 20 22 22 22 23 24 25 27 28 29 30 31 31 30 30 33 34 34 35 36 36 36 36 36 36 36 36 35 34 34 33 32 31 31 31 30 29 29 29 30 28 26 27 28 30 33 35 36 35 33 33 33 30 26 22 20 22 22 20 18 15 12 9 8 8 10 11 12 13 13 12
22 21 20 19 19 18 15 13 14 15 15 15 15 16 16 17 18 19 20 21 20 21 22 24 25 26 28 30 30 31 30 29 32 33 34 34 35 36 36 36 37 36 36 35 34 34 35 34 34 33 32 32 31 31 31 30 29 28 29 31 30 31 36 39 38 37 34 34 33 30 27 23 21 23 25 23 20 17 13 8 5 7 9 10 10 12 13 12
21 19 18 17 16 14 11 9 10 11 12 12 14 15 15 16 17 18 19 20 19 20 22 24 24 25 27 28 29 30 29 29 31 33 34 34 35 36 36 36 37 36 35 35 35 35 35 35 35 35 34 33 32 32 33 31 29 30 32 34 33 34 38 41 40 39 38 37 35 32 29 25 22 24 27 24 18 13 11 9 7 7 8 8 8 10 12 12
20 17 17 15 13 11 9 6 6 7 9 10 12 14 15 16 17 18 19 19 20 22 23 24 25 26 27 26 27 28 28 28 30 32 33 34 34 35 35 36 36 36 35 35 35 36 36 36 35 36 36 35 34 34 33 32 30 31 33 35 36 37 40 44 43 41 42 41 37 34 31 28 26 26 23 17 11 9 9 9 8 6 6 7 7 9 10 11
19 17 16 14 12 10 9 7 6 7 8 9 11 14 15 16 18 19 19 20 22 23 24 24 25 26 26 25 25 26 26 27 29 31 32 32 32 33 34 35 36 36 35 34 34 35 35 36 36 37 37 35 35 35 34 34 33 33 33 35 37 38 41 45 45 44 45 42 39 35 32 32 31 27 19 11 11 12 13 11 10 8 7 6 7 9 10 11
18 16 15 14 11 10 10 9 8 8 8 10 12 14 16 17 17 18 20 22 24 24 24 25 26 25 25 25 25 25 26 27 28 29 30 30 30 31 32 33 34 35 34 33 33 34 34 35 37 38 37 36 36 35 35 36 36 35 35 36 39 39 41 45 47 46 45 42 39 36 34 34 32 26 18 12 12 14 14 13 12 12 12 11 9 10 12 13
16 14 14 13 11 10 10 9 9 9 9 10 12 15 17 16 15 17 19 22 23 23 24 25 25 25 24 25 25 26 27 27 27 27 27 28 28 29 31 31 32 33 33 33 33 34 35 35 36 36 36 37 38 37 36 36 37 37 37 38 39 41 41 44 45 46 45 42 40 39 37 36 33 26 19 14 15 16 16 15 14 14 16 17 16 15 16 16
15 12 12 11 9 9 9 8 9 9 9 10 12 14 14 13 13 14 16 19 19 19 20 21 22 23 23 23 23 24 25 25 26 26 26 28 29 29 30 30 31 32 32 32 32 34 35 34 34 36 36 38 39 39 38 38 37 37 38 39 40 42 42 43 44 44 44 43 42 41 39 39 36 29 23 20 20 20 18 17 17 16 18 20 20 20 20 19
14 10 9 9 8 8 7 7 7 8 8 8 9 11 11 11 12 12 14 15 16 16 17 18 20 21 23 24 24 25 26 25 26 27 26 28 29 29 29 30 31 32 31 31 31 32 33 33 35 36 36 38 39 40 39 38 37 38 39 39 41 42 42 43 44 44 45 45 45 44 41 40 38 33 29 29 28 24 21 21 20 18 18 19 18 18 19 20
15 9 7 7 6 6 6 6 6 7 7 5 5 8 9 9 10 11 12 14 15 16 16 16 19 21 23 24 26 28 28 27 28 28 27 28 29 29 29 29 30 31 31 31 29 30 30 31 34 34 35 37 39 39 38 36 36 38 40 39 40 42 42 43 45 46 47 47 47 46 43 40 38 36 33 33 33 30 27 26 23 20 20 18 15 15 16 18
17 10 6 5 4 4 4 4 4 5 5 4 4 7 8 9 10 11 12 12 13 14 14 15 18 20 22 23 25 27 27 26 27 27 28 27 27 28 28 29 30 29 30 30 30 29 29 29 31 32 33 36 38 38 36 35 36 38 40 39 39 40 42 44 45 46 49 49 49 47 45 41 39 38 36 34 34 33 31 30 28 25 23 19 14 13 14 16
20 14 8 5 5 4 3 2 1 2 3 4 6 7 8 10 11 11 11 12 13 13 13 14 16 18 20 21 22 23 24 23 24 24 25 24 24 24 24 25 26 26 27 28 28 28 28 28 29 30 31 34 36 36 35 34 36 38 39 38 38 39 42 44 45 47 49 50 50 49 47 46 42 39 38 37 36 35 34 34 33 30 28 23 18 15 14 14
20 17 13 10 9 7 6 4 2 1 3 5 6 6 8 11 12 12 12 13 14 14 13 14 15 16 16 17 18 20 21 21 22 22 22 22 21 21 21 20 21 22 23 24 24 25 26 27 27 28 30 32 34 35 34 34 35 37 37 37 37 39 42 44 45 47 48 50 50 49 48 49 47 43 41 41 40 39 37 36 35 33 31 28 24 20 17 16
19 17 14 13 11 9 7 6 3 2 3 4 5 6 7 10 11 12 13 14 15 15 15 16 16 15 14 13 14 16 17 19 20 20 20 19 18 18 19 19 19 20 20 20 21 21 23 25 27 28 29 32 34 35 34 33 33 35 36 37 38 39 41 43 45 47 48 49 49 48 47 49 50 47 45 45 44 43 41 39 37 35 33 31 30 27 22 18
18 15 13 12 11 9 7 5 4 3 4 2 3 4 6 7 8 8 10 13 13 13 15 17 17 17 16 14 14 14 15 15 15 16 17 18 18 19 19 20 21 21 21 21 21 21 22 24 26 28 30 32 35 35 35 33 33 34 36 37 38 38 40 42 44 46 48 49 49 47 46 48 50 48 47 47 48 47 45 42 40 39 36 34 34 31 27 24
15 13 12 11 10 9 7 5 5 6 6 5 3 2 3 5 4 4 7 10 11 11 13 16 17 18 17 15 15 15 14 13 12 12 15 17 19 19 20 20 21 22 22 23 24 24 25 25 26 28 31 33 35 36 36 35 35 35 36 38 39 39 40 42 44 46 47 48 49 46 46 48 48 47 46 46 49 50 48 46 44 42 40 38 37 34 30 28
14 12 11 10 10 9 8 8 7 7 6 6 5 3 2 2 2 2 4 6 7 8 9 11 14 16 17 15 14 14 13 12 12 13 15 18 19 20 20 21 21 21 21 22 24 25 26 27 27 30 33 34 35 37 38 37 36 36 37 38 40 40 40 41 43 45 46 47 48 46 45 46 46 45 43 43 45 48 49 48 47 45 41 38 37 33 29 27
13 12 10 9 8 7 8 9 8 6 6 5 4 4 2 2 1 2 3 3 3 4 6 8 10 12 14 13 12 12 12 12 13 14 15 17 18 19 20 20 21 21 21 22 23 24 25 26 27 30 33 35 37 38 38 38 39 39 38 39 41 41 40 41 43 45 45 46 47 47 47 46 44 43 42 40 41 43 45 47 47 44 42 41 39 35 32 30
13 13 12 9 5 5 6 7 7 6 5 4 3 3 3 2 0 1 2 2 2 4 6 8 9 10 11 12 12 12 12 13 14 15 16 17 18 19 20 21 21 20 20 22 23 24 25 26 26 29 33 37 38 39 39 40 40 41 41 41 42 42 41 41 42 44 46 47 47 48 49 47 44 42 42 40 40 41 42 43 43 42 44 45 43 40 38 38
15 14 12 8 3 2 3 3 4 5 5 4 3 2 3 3 2 2 2 2 3 4 6 8 10 11 11 12 13 14 15 16 16 16 17 18 19 20 21 21 21 20 20 21 22 23 24 25 25 27 31 35 37 38 39 40 41 42 43 43 43 43 43 43 43 45 47 47 48 49 49 47 45 44 43 41 41 42 42 40 39 40 44 46 46 45 44 43
17 15 14 10 4 2 3 4 5 5 5 4 4 3 3 4 5 5 5 5 5 6 7 8 10 12 12 13 14 15 17 18 19 19 19 20 21 22 22 23 23 23 22 22 23 24 25 26 26 27 29 32 35 38 40 40 40 41 43 44 45 44 43 44 45 46 47 48 48 49 48 47 46 46 45 42 42 42 42 40 38 38 41 45 46 47 48 46
19 17 16 13 9 6 6 6 7 7 6 5 4 4 4 5 7 8 8 9 9 9 9 9 11 13 13 14 15 16 17 19 20 21 21 22 22 23 23 24 24 24 25 25 25 25 26 27 28 28 29 30 34 38 40 41 41 41 42 44 46 46 45 45 47 48 49 49 49 49 49 47 47 48 46 44 43 41 38 39 40 39 40 42 44 46 47 46
20 18 16 13 11 9 8 8 8 8 8 7 7 6 6 6 7 8 8 10 11 11 12 11 11 12 14 15 16 17 18 19 20 21 23 23 24 25 25 25 26 26 26 27 27 27 28 29 30 31 32 32 33 36 38 41 42 42 42 44 46 48 48 48 50 51 51 51 50 49 48 47 48 50 49 47 45 41 37 37 41 41 40 41 43 45 46 45
20 19 16 12 10 9 9 10 10 10 10 10 9 9 8 7 7 7 7 9 10 11 12 12 11 13 15 16 17 18 19 19 20 21 23 24 25 26 27 27 28 28 28 28 29 29 30 31 32 33 35 36 36 36 37 39 41 42 43 45 47 50 51 51 51 52 52 51 50 50 48 47 48 51 53 51 48 44 40 40 42 43 42 43 45 45 45 46
20 19 16 13 12 12 12 11 11 10 10 9 9 9 9 9 9 8 8 8 9 9 10 11 11 13 15 16 17 18 19 20 21 22 23 25 26 27 28 28 29 29 30 30 30 30 31 33 34 35 36 38 38 39 39 40 41 42 44 47 50 52 53 54 53 52 53 52 52 52 50 49 49 49 53 56 54 50 45 43 45 47 47 47 48 47 46 48
18 18 17 15 14 14 13 11 10 9 9 9 9 9 9 9 9 10 10 9 9 9 8 8 9 10 12 14 15 17 18 20 21 22 23 24 25 26 27 27 28 28 29 30 31 31 32 33 35 37 38 39 40 42 43 43 42 42 45 49 52 54 56 56 55 55 54 53 53 55 54 53 51 49 52 58 59 55 50 47 47 51 52 51 50 50 49 50
Wind_Direction
288 285 281 277 272 268 265 262 259 257 254 252 251 250 250 249 249 246 244 244 244 245 247 247 245 244 243 242 242 237 233 230 226 223 221 222 222 218 220 221 219 220 220 219 216 212 212 213 212 212 209 207 207 211 217 215 210 199 189 210 327 349 54 95 131 144 142 145 153 144 137 142 146 142 136 132 126 116 110 104 101 99 97 85 71 88 107 112
284 284 283 281 278 273 268 265 261 258 255 253 251 249 248 247 247 246 244 243 243 243 244 246 245 243 242 240 241 240 237 233 229 225 221 221 222 219 218 220 219 218 219 218 217 213 212 212 210 212 209 205 207 210 215 216 210 201 188 195 253 293 218 155 221 165 145 156 169 158 144 138 144 142 135 129 123 123 106 96 107 112 111 94 77 90 109 116
281 279 279 278 278 276 273 269 264 260 256 254 252 249 247 246 245 244 244 242 242 241 242 243 244 242 241 239 239 240 239 236 231 227 222 220 221 219 216 218 218 217 219 221 221 217 214 215 214 213 209 204 207 209 212 215 209 199 189 193 221 250 231 177 211 172 135 136 159 158 141 134 144 140 133 132 122 113 92 85 98 109 129 104 90 94 110 122
280 277 275 274 273 273 273 272 269 265 260 256 253 250 247 245 244 243 242 242 241 239 239 241 243 242 241 239 238 238 238 237 234 229 225 221 220 220 216 215 218 218 218 220 219 216 214 215 216 215 211 208 209 211 211 211 207 198 195 201 216 231 233 204 192 172 139 119 132 146 137 135 147 142 134 134 130 126 104 83 85 98 147 112 105 104 111 127
282 278 275 272 270 269 268 268 268 266 264 259 255 252 248 245 243 242 241 241 240 238 237 238 241 241 240 239 238 237 236 237 235 232 229 223 220 221 217 213 216 218 217 218 215 210 209 210 211 211 210 211 214 215 214 211 207 201 201 208 215 226 231 214 172 156 144 137 136 142 143 142 149 147 138 136 137 138 122 105 96 98 124 109 112 118 118 130
283 279 276 272 269 268 266 264 263 263 263 262 258 254 250 246 243 241 240 239 239 238 236 235 237 240 240 239 238 237 236 235 235 234 232 226 221 221 218 213 213 215 214 215 214 207 208 208 207 204 201 206 214 215 216 216 212 204 203 208 213 224 231 227 191 146 138 147 148 152 156 146 145 149 143 142 144 135 123 121 111 91 84 105 117 128 126 131
284 281 277 273 270 267 265 264 262 260 259 258 259 257 253 249 244 242 241 238 237 238 237 234 234 237 238 238 238 238 235 234 233 233 232 228 223 220 217 214 212 213 212 212 212 209 209 208 207 204 197 199 208 209 208 211 213 208 205 207 210 217 225 230 212 156 134 133 130 142 155 143 140 149 151 150 145 133 123 124 109 83 74 117 130 138 130 132
284 282 278 274 271 267 264 263 261 260 258 256 255 255 255 252 248 244 242 240 237 236 237 235 233 234 236 237 237 237 236 233 232 232 232 230 226 222 217 215 213 211 210 210 211 211 210 210 209 208 203 202 204 205 205 204 208 210 207 208 210 212 218 221 209 177 152 137 119 120 135 137 142 152 157 154 143 135 127 126 113 93 99 162 146 139 129 134
284 282 280 277 273 269 265 262 261 259 258 256 254 253 253 253 251 247 244 242 239 236 235 235 234 233 233 235 236 237 236 233 232 231 232 232 229 225 219 217 216 212 209 208 210 211 211 214 212 209 209 208 206 206 208 207 208 213 211 209 211 215 220 220 212 195 177 159 134 121 115 114 139 149 151 147 140 138 131 131 126 114 149 198 156 135 128 133
284 282 281 280 276 272 268 264 261 259 258 256 254 252 251 251 251 249 247 245 241 238 235 234 234 233 232 232 234 236 236 234 233 231 230 232 231 229 223 220 219 213 208 206 206 208 209 211 213 214 214 213 210 208 211 212 212 215 217 215 213 216 224 228 222 204 185 167 138 120 101 103 125 134 134 130 131 139 136 136 135 135 164 205 163 132 125 130
284 282 280 280 280 277 272 267 263 260 257 256 254 253 251 250 250 249 249 247 244 241 237 235 234 233 232 231 232 235 236 236 234 231 229 229 230 231 227 223 220 214 208 206 206 209 211 212 214 218 218 215 213 212 214 216 215 215 218 220 218 216 221 227 223 209 193 172 142 123 112 115 124 122 124 128 128 136 140 139 139 149 168 198 178 130 122 126
288 284 280 278 279 279 276 271 267 262 258 256 254 253 251 250 249 248 248 248 246 244 241 237 234 234 233 231 230 232 235 236 235 232 229 228 227 228 228 224 221 216 211 209 208 209 212 213 215 218 219 215 210 210 214 218 217 214 216 219 218 215 215 220 218 211 208 198 177 153 135 128 127 128 139 149 142 143 143 144 155 163 171 191 193 131 121 123
293 290 286 279 276 277 277 273 269 265 261 257 254 252 251 250 248 247 246 246 246 245 244 240 237 234 234 232 230 230 233 236 236 232 229 230 227 225 227 225 221 218 215 213 211 210 211 211 213 218 219 216 209 207 212 218 218 215 215 217 216 211 209 212 210 207 212 210 197 176 159 147 143 146 152 154 153 164 151 147 174 178 180 195 192 147 121 117
295 295 294 288 279 274 275 275 269 266 263 259 255 252 250 250 248 246 245 244 243 244 243 242 239 236 234 233 231 229 230 233 237 234 227 228 229 225 225 225 222 220 219 217 214 213 213 211 213 215 217 216 211 207 206 212 217 217 216 217 215 210 205 207 206 202 207 208 197 181 170 158 156 158 157 156 162 177 168 155 180 195 204 207 196 176 122 107
294 295 296 296 290 278 272 273 270 266 262 259 256 253 250 249 248 246 244 243 242 241 241 241 240 237 235 233 231 229 228 229 234 236 229 224 227 226 225 224 223 222 222 220 215 213 212 212 213 212 212 213 212 208 202 203 211 215 216 218 215 208 203 204 204 201 201 203 194 183 182 175 170 167 162 163 167 181 186 170 168 183 234 230 205 194 130 101
291 293 294 295 295 286 273 270 269 265 262 259 256 252 250 248 247 246 245 243 241 240 239 238 238 237 235 234 232 229 227 226 229 234 232 225 224 225 225 224 224 224 224 222 218 214 211 212 213 211 210 210 209 208 204 202 204 206 211 217 214 204 201 202 200 199 199 197 188 181 193 194 185 181 176 175 170 184 213 201 184 178 212 258 239 225 160 119
289 291 292 292 294 291 278 268 266 263 260 258 255 252 249 247 246 245 244 243 241 240 238 237 236 236 235 234 232 230 227 226 226 229 232 228 225 225 224 224 224 224 224 223 221 217 213 212 213 212 211 207 204 206 206 205 203 201 204 207 205 197 196 202 202 199 197 194 188 182 192 204 198 193 190 192 183 186 224 229 216 191 179 257 281 263 227 165
288 290 291 291 291 291 282 270 263 259 256 255 253 251 249 246 244 243 242 242 241 239 238 237 236 235 235 234 233 231 228 226 226 227 229 228 226 226 225 225 225 225 224 224 223 219 214 213 214 213 212 208 204 205 206 207 205 202 202 202 201 193 190 200 204 200 196 195 193 186 188 199 204 200 193 194 191 184 223 237 232 210 181 176 275 272 259 224
288 288 289 289 288 288 283 272 263 257 252 252 252 250 249 247 244 241 240 240 240 239 237 236 235 234 234 233 232 231 229 227 226 226 227 228 226 226 227 226 226 227 226 225 224 220 215 214 214 213 212 210 207 204 203 207 207 205 203 202 203 198 194 198 202 202 201 200 195 188 188 191 194 200 195 191 189 179 214 241 235 228 207 189 212 256 259 244
290 287 286 286 285 284 281 273 263 256 251 248 248 247 247 245 244 241 238 237 238 238 237 235 234 234 233 232 232 231 230 228 227 226 227 228 227 226 227 227 226 228 227 227 226 223 218 215 214 212 210 209 208 204 201 204 207 206 205 204 204 205 204 204 203 205 208 205 198 194 195 192 188 193 196 193 189 175 159 240 233 230 224 205 197 227 246 243
291 287 284 282 281 279 277 272 264 257 251 247 245 243 243 242 242 241 238 236 236 236 236 235 234 234 233 233 232 231 230 228 228 227 227 228 228 228 229 228 227 228 228 228 227 224 222 217 210 210 210 209 208 204 202 204 206 206 206 205 204 205 210 214 211 211 214 210 204 203 202 198 192 191 194 195 191 178 156 207 229 228 227 215 198 212 235 238
292 288 285 281 278 276 273 269 264 257 251 247 243 240 239 240 240 240 238 236 235 234 234 234 233 233 233 232 232 231 231 229 228 228 227 228 229 230 230 231 230 229 228 228 228 226 224 219 212 212 213 211 210 207 205 207 208 208 208 207 204 201 207 216 215 216 217 212 210 209 204 200 195 190 189 189 189 183 170 185 220 225 226 220 206 207 222 229
294 290 287 282 278 275 271 267 262 256 251 247 243 239 237 237 238 238 237 235 234 233 233 232 232 232 232 232 231 230 230 230 228 228 228 228 229 230 231 232 232 231 230 230 230 227 224 221 218 217 215 214 212 208 207 209 211 211 212 210 204 201 206 211 212 215 216 212 212 212 209 205 200 195 190 186 187 184 174 179 209 218 220 220 212 206 211 214
297 292 289 285 279 276 272 266 260 253 249 246 243 240 236 235 235 235 235 234 233 232 232 232 231 231 230 230 230 228 228 229 229 228 228 228 228 229 230 231 233 233 232 231 230 227 223 220 219 218 216 215 215 211 209 210 211 211 212 209 204 204 207 207 208 214 217 215 214 217 215 212 211 207 197 188 185 179 173 181 198 211 217 217 212 206 204 206
301 294 291 287 281 277 272 267 260 253 247 244 243 240 237 235 233 233 233 232 231 230 230 229 229 229 229 229 229 228 227 228 228 228 228 227 228 229 229 230 231 233 232 231 230 228 226 224 223 221 219 217 217 215 213 212 211 210 209 202 199 205 206 204 207 214 218 216 216 221 221 217 217 213 202 192 182 172 176 186 196 210 215 214 210 207 204 202
305 299 294 289 283 279 274 268 262 253 247 244 244 240 237 235 232 229 229 229 228 227 227 227 227 227 227 227 227 226 226 227 226 227 227 227 228 229 229 230 230 231 231 231 230 230 229 228 226 225 223 220 218 217 215 214 213 209 204 197 196 202 202 202 207 213 217 216 215 220 220 215 213 207 202 195 182 173 182 191 199 208 211 213 213 211 210 206
309 303 298 293 286 282 277 270 261 254 249 245 243 238 233 230 228 225 224 223 222 222 222 222 223 224 226 227 226 224 224 225 225 226 227 227 227 227 228 229 229 230 230 231 231 232 232 230 229 227 225 223 221 218 216 215 214 208 201 197 196 199 197 200 208 212 217 220 218 219 219 215 209 202 201 197 185 182 188 195 205 206 207 215 220 219 215 208
313 307 304 299 292 286 282 272 261 254 249 243 238 235 229 223 220 217 216 215 214 215 216 218 220 221 224 226 225 224 223 223 224 224 224 224 225 226 226 227 228 228 228 229 230 231 231 231 230 229 228 227 224 221 218 215 212 206 201 197 195 196 195 200 209 212 215 222 222 219 220 219 210 204 204 199 191 190 185 179 194 208 210 216 223 225 218 210
316 311 309 305 296 290 285 272 261 255 247 238 232 231 226 219 212 208 210 206 202 206 210 213 215 216 220 223 223 224 223 223 223 223 224 224 224 225 226 227 228 227 226 227 228 230 230 230 230 230 230 228 227 225 223 219 212 206 204 200 195 194 194 200 209 212 215 222 223 220 221 222 212 206 208 203 195 191 180 169 181 205 214 215 222 227 219 215
318 313 311 308 298 288 283 273 262 255 248 237 226 223 220 215 207 203 204 198 194 199 204 206 209 212 216 219 221 222 222 222 223 225 225 225 225 225 226 227 228 228 226 226 227 229 230 231 230 229 229 228 228 229 227 223 216 210 209 205 199 195 194 199 206 211 216 222 225 223 222 221 217 215 215 205 184 169 161 165 172 186 208 213 220 226 221 221
318 313 310 309 299 284 279 276 264 253 248 238 225 218 214 210 205 202 197 192 193 197 199 202 206 209 212 215 217 219 218 218 222 224 226 226 226 226 227 228 228 228 227 227 228 229 231 231 231 229 228 228 228 230 229 225 221 214 211 210 206 200 196 199 205 212 217 222 224 226 225 224 223 221 219 200 177 171 166 168 167 163 177 192 204 211 213 216
316 310 308 308 302 284 273 271 263 255 249 240 228 219 213 210 207 203 196 193 194 194 194 199 203 204 207 210 213 216 216 217 220 223 226 227 226 226 227 228 228 228 228 227 227 228 229 231 232 231 230 228 227 228 228 226 223 217 213 211 209 204 200 201 205 212 218 222 223 224 226 229 227 220 215 199 184 182 177 182 191 189 184 178 181 197 203 207
316 307 304 305 303 288 272 265 259 253 252 247 234 222 214 210 209 206 201 199 198 197 197 199 201 201 204 207 211 214 218 219 219 221 225 227 227 226 226 227 228 228 227 226 226 227 228 229 231 232 230 229 227 226 227 226 225 221 216 213 211 207 203 203 206 212 218 221 223 223 225 230 230 220 209 188 174 181 183 189 207 215 204 189 183 190 198 202
322 305 299 300 299 290 276 264 256 251 254 251 234 221 214 211 212 210 206 204 203 204 205 205 203 204 206 208 210 213 217 219 219 219 222 226 227 226 226 226 226 226 226 225 225 227 227 226 227 229 228 229 228 227 226 227 227 223 219 216 214 210 207 206 207 211 216 219 223 225 225 228 230 223 207 190 185 191 192 196 206 215 216 209 201 200 202 203
335 310 294 297 296 289 278 266 257 249 252 252 231 215 210 211 214 214 210 207 206 208 210 213 213 211 211 213 215 216 217 218 219 218 218 223 226 226 226 226 227 226 225 224 224 225 227 225 225 226 227 228 229 228 226 226 225 224 222 219 217 214 212 210 208 209 213 217 221 225 226 226 228 224 211 204 206 205 200 202 206 209 219 225 224 219 212 208
349 326 297 299 304 296 281 269 258 243 241 245 227 212 210 214 217 217 215 212 211 209 209 215 220 218 216 215 215 218 219 218 219 219 217 219 222 223 224 224 226 227 227 226 224 223 224 225 226 225 225 227 229 228 226 224 223 225 225 222 220 219 215 212 211 210 211 215 219 223 226 227 227 225 218 213 214 211 203 202 203 207 219 228 230 226 221 218
359 350 323 311 312 299 280 269 254 232 221 217 218 214 214 220 224 224 224 224 225 220 212 212 221 224 223 221 220 220 218 217 217 219 217 216 217 220 220 220 222 223 225 225 224 223 223 224 225 223 223 226 228 228 226 223 222 226 227 224 221 220 217 213 212 212 212 214 217 221 225 229 228 226 222 219 218 216 208 204 203 205 216 225 222 216 218 221
7 5 356 349 343 330 321 314 272 202 186 197 213 216 219 224 228 233 238 239 240 238 224 215 220 226 227 227 230 229 224 219 217 217 217 215 214 216 217 218 218 218 221 222 222 222 221 222 223 222 222 225 228 228 226 223 222 224 227 225 220 218 219 217 214 214 214 215 217 218 222 227 229 227 224 221 221 220 215 210 209 210 212 216 216 217 219 222
13 16 17 18 12 1 355 349 342 115 154 192 207 212 218 223 226 235 242 242 242 243 235 223 219 223 226 225 229 234 231 226 220 218 219 218 216 216 217 219 219 217 217 219 219 220 219 219 219 219 219 222 226 227 225 224 223 223 224 225 222 220 220 219 216 216 216 216 217 217 219 225 228 227 225 221 220 222 220 216 215 215 214 211 210 213 222 230
15 21 26 27 24 17 10 3 4 83 133 190 199 195 208 219 224 234 244 244 240 236 234 230 224 222 224 224 225 231 232 230 226 222 223 224 222 221 221 221 222 222 219 217 217 216 216 217 217 217 217 218 222 225 225 223 223 223 222 222 223 222 221 221 220 219 219 219 219 217 217 221 224 225 224 222 220 220 222 222 220 219 217 215 211 210 215 224
15 23 31 33 32 26 19 18 31 71 90 117 178 189 212 228 231 236 243 243 237 229 227 230 231 231 232 234 233 230 228 230 232 229 228 228 227 225 223 221 222 224 223 221 220 216 214 214 213 213 215 215 216 222 226 224 222 222 221 220 220 220 221 221 222 221 221 221 221 220 217 218 220 222 223 224 222 220 221 223 224 222 218 216 217 216 214 215
15 23 32 36 36 27 22 37 50 60 71 76 93 147 213 238 245 243 238 235 231 226 222 224 231 238 244 245 242 237 230 227 229 226 223 224 225 225 222 220 221 223 223 223 222 218 214 212 209 210 213 213 213 218 223 224 222 221 221 221 219 218 219 220 222 223 222 222 223 222 221 220 219 220 222 223 224 223 222 223 225 225 221 219 220 220 215 213
9 17 29 38 41 35 37 51 52 51 62 74 85 103 151 198 218 218 218 225 227 223 219 217 222 233 241 245 246 243 238 231 224 218 217 219 221 223 222 219 220 221 221 221 220 219 216 212 208 208 212 213 213 216 220 222 223 221 220 222 221 218 218 219 222 224 224 224 223 221 222 222 220 219 220 220 222 224 225 224 225 227 225 223 222 221 217 215
1 6 20 35 46 50 57 67 66 60 62 69 83 97 110 129 160 183 183 194 212 210 205 205 209 220 229 237 243 241 235 231 224 219 220 222 222 223 223 220 221 222 222 222 221 219 219 216 210 208 211 213 213 215 218 220 222 221 220 222 223 221 219 219 220 223 225 225 224 222 222 222 220 219 218 214 215 219 222 222 224 227 226 224 222 217 212 211
3 3 10 18 37 57 68 80 78 65 58 49 54 74 73 66 111 196 193 199 220 221 215 212 212 215 219 227 237 239 233 231 228 224 224 227 227 227 225 224 224 223 223 225 224 222 221 219 214 210 211 214 215 215 217 219 220 221 221 222 224 224 221 220 219 221 223 225 226 224 223 221 218 217 216 211 207 211 216 219 221 223 224 224 222 218 215 212
14 12 13 6 7 44 46 62 63 52 46 31 10 19 32 16 350 310 267 259 261 258 250 242 235 231 228 228 234 239 240 239 239 235 232 232 232 233 232 232 232 231 230 229 228 227 226 222 218 214 213 216 219 219 219 220 221 222 221 221 224 225 223 222 220 220 221 223 225 226 224 220 216 215 214 211 206 206 211 214 215 217 219 221 223 224 225 223
22 21 21 17 13 13 8 13 19 14 6 357 341 330 339 339 328 314 296 287 287 284 275 264 257 252 247 243 241 242 244 245 246 246 244 241 239 239 239 240 239 238 236 236 234 233 233 230 225 221 217 217 220 222 222 223 223 223 223 223 224 225 225 223 221 220 221 221 222 226 226 221 216 214 213 211 206 205 209 210 210 210 210 215 221 224 228 228
26 24 23 22 22 19 9 1 360 357 349 343 338 328 321 319 316 311 303 295 291 288 282 272 266 264 259 255 251 248 247 248 250 252 251 249 246 245 245 245 244 242 240 240 239 237 237 237 235 232 227 221 220 222 224 225 225 224 224 225 226 226 226 224 222 221 221 220 220 224 226 223 217 214 213 211 205 204 207 207 205 203 202 205 212 217 223 225
27 27 23 19 17 17 16 11 8 9 9 7 5 357 344 334 324 316 310 301 293 288 284 278 271 268 265 262 259 255 252 251 253 254 255 254 253 252 251 250 250 248 245 245 244 241 240 240 239 239 237 232 227 225 225 226 228 228 226 225 226 227 227 226 224 223 222 221 219 221 225 226 221 214 212 210 204 202 206 204 202 203 203 203 206 211 216 219
23 26 26 22 21 26 30 32 30 28 22 16 10 4 358 353 344 334 323 308 297 290 284 279 274 269 268 267 264 262 260 258 256 256 255 255 255 255 254 255 255 253 251 249 249 247 245 244 243 242 242 241 237 233 230 229 229 231 231 228 225 227 228 227 227 225 224 223 221 220 222 225 222 216 213 211 205 204 209 208 206 208 208 207 207 210 212 214
17 21 24 25 27 30 32 34 33 30 24 15 9 4 359 357 354 349 341 325 312 303 290 283 278 272 268 267 265 263 263 261 260 258 256 255 254 252 252 252 253 254 253 252 251 251 249 248 247 246 246 246 243 240 237 234 232 231 232 231 227 226 227 228 229 228 226 224 223 220 218 220 221 216 213 213 211 210 213 212 210 211 210 207 207 209 211 211
13 14 16 19 22 25 25 26 26 27 25 19 14 11 9 10 13 11 5 357 347 338 325 310 299 285 276 271 267 264 262 260 258 257 258 258 256 254 253 251 251 252 253 253 253 253 252 252 250 249 249 250 249 246 242 239 236 234 232 231 229 228 227 227 228 229 227 225 224 222 218 217 219 216 212 213 212 211 211 211 212 210 207 206 207 207 210 210
Height
5858 5857 5856 5855 5854 5854 5853 5852 5852 5852 5852 5851 5851 5852 5852 5853 5853 5854 5854 5854 5854 5855 5856 5856 5857 5857 5858 5858 5858 5859 5859 5860 5861 5862 5863 5864 5866 5867 5868 5869 5870 5872 5873 5874 5875 5876 5878 5879 5881 5882 5883 5884 5885 5885 5886 5887 5888 5888 5889 5888 5889 5890 5892 5892 5891 5892 5893 5893 5892 5894 5895 5896 5896 5897 5897 5898 5899 5899 5899 5898 5899 5901 5900 5900 5899 5899 5899 5900
5855 5854 5854 5853 5852 5852 5851 5850 5850 5849 5849 5849 5849 5849 5849 5850 5851 5851 5852 5852 5852 5853 5854 5854 5854 5855 5856 5857 5857 5857 5858 5859 5859 5861 5862 5863 5864 5865 5866 5867 5869 5870 5871 5872 5873 5875 5876 5878 5880 5881 5882 5883 5884 5885 5885 5886 5887 5888 5889 5889 5889 5890 5892 5892 5891 5892 5893 5893 5893 5894 5895 5896 5896 5896 5898 5899 5900 5900 5899 5899 5900 5901 5901 5900 5900 5900 5900 5901
5853 5852 5851 5850 5850 5849 5849 5848 5848 5847 5847 5846 5846 5846 5847 5847 5848 5849 5849 5849 5850 5851 5851 5851 5852 5852 5853 5854 5855 5855 5856 5857 5858 5859 5860 5861 5862 5863 5865 5866 5867 5869 5869 5870 5872 5874 5875 5877 5878 5880 5881 5883 5883 5884 5885 5886 5887 5888 5889 5889 5889 5891 5892 5892 5891 5892 5893 5893 5894 5894 5895 5896 5896 5897 5897 5899 5900 5900 5900 5900 5900 5902 5902 5900 5901 5901 5901 5902
5850 5850 5849 5848 5847 5846 5846 5846 5845 5845 5844 5844 5844 5844 5844 5845 5845 5846 5846 5847 5847 5848 5849 5849 5849 5850 5851 5852 5853 5853 5854 5855 5856 5857 5858 5859 5860 5861 5863 5864 5866 5867 5868 5869 5871 5873 5874 5876 5877 5879 5880 5881 5882 5883 5884 5885 5887 5888 5889 5889 5890 5891 5892 5892 5891 5892 5892 5893 5893 5894 5895 5895 5896 5896 5897 5898 5899 5900 5900 5900 5901 5902 5902 5901 5901 5902 5902 5903
5847 5846 5846 5845 5844 5844 5843 5843 5842 5842 5842 5842 5841 5841 5841 5842 5843 5843 5843 5844 5844 5846 5846 5846 5847 5847 5848 5849 5850 5851 5852 5853 5854 5855 5856 5857 5858 5859 5861 5863 5864 5865 5867 5868 5870 5872 5873 5874 5876 5878 5880 5881 5881 5882 5883 5885 5886 5888 5889 5889 5890 5891 5892 5892 5892 5892 5892 5892 5893 5894 5895 5896 5896 5896 5897 5899 5900 5900 5900 5901 5902 5903 5903 5902 5902 5903 5903 5904
5843 5843 5842 5841 5841 5840 5840 5839 5839 5839 5839 5839 5839 5839 5839 5839 5840 5840 5841 5841 5842 5843 5843 5844 5844 5844 5845 5847 5848 5848 5850 5851 5852 5853 5854 5855 5857 5857 5859 5861 5863 5864 5866 5867 5869 5871 5872 5873 5874 5876 5878 5879 5880 5881 5883 5884 5885 5886 5887 5889 5890 5891 5892 5892 5892 5892 5892 5893 5894 5895 5896 5897 5897 5898 5899 5900 5901 5901 5900 5901 5903 5903 5903 5902 5903 5904 5904 5904
5839 5838 5838 5837 5837 5837 5836 5836 5836 5835 5835 5835 5836 5836 5836 5837 5837 5838 5838 5839 5839 5840 5841 5841 5842 5842 5843 5844 5845 5846 5847 5849 5850 5851 5852 5853 5855 5856 5857 5859 5861 5862 5864 5866 5868 5869 5870 5872 5873 5874 5876 5877 5878 5880 5881 5882 5883 5884 5886 5888 5889 5890 5891 5892 5892 5892 5892 5893 5894 5895 5897 5898 5898 5899 5900 5901 5902 5901 5901 5902 5902 5902 5903 5903 5905 5905 5905 5904
5835 5834 5833 5832 5832 5832 5832 5832 5832 5832 5831 5832 5832 5833 5833 5834 5835 5835 5836 5836 5837 5837 5838 5839 5839 5840 5840 5841 5842 5843 5844 5846 5847 5848 5849 5851 5853 5854 5856 5857 5858 5860 5862 5864 5866 5868 5869 5870 5871 5873 5874 5874 5876 5878 5879 5879 5880 5882 5885 5887 5889 5889 5890 5891 5892 5891 5892 5892 5894 5895 5896 5898 5898 5899 5900 5901 5901 5901 5901 5901 5902 5902 5904 5905 5906 5906 5905 5905
5830 5829 5828 5828 5828 5827 5827 5827 5828 5828 5828 5828 5828 5829 5830 5831 5832 5833 5833 5833 5834 5835 5835 5836 5837 5837 5838 5839 5840 5840 5841 5843 5844 5846 5847 5849 5850 5852 5854 5855 5856 5858 5861 5863 5865 5867 5868 5868 5869 5870 5871 5872 5874 5876 5877 5878 5879 5881 5884 5887 5889 5890 5890 5891 5891 5891 5891 5892 5893 5894 5896 5897 5897 5899 5899 5901 5901 5901 5901 5902 5902 5903 5905 5906 5906 5906 5906 5905
5825 5824 5823 5823 5823 5823 5823 5823 5823 5823 5823 5824 5824 5825 5826 5827 5828 5830 5830 5830 5831 5832 5833 5833 5834 5835 5836 5837 5837 5838 5838 5840 5842 5844 5845 5847 5848 5850 5852 5853 5854 5857 5859 5861 5863 5863 5864 5865 5866 5868 5869 5871 5873 5875 5876 5878 5879 5881 5884 5887 5888 5890 5891 5891 5891 5891 5891 5892 5893 5894 5895 5896 5897 5899 5900 5900 5901 5901 5902 5902 5902 5903 5905 5906 5906 5906 5906 5905
5821 5819 5819 5818 5818 5818 5818 5818 5818 5819 5819 5819 5820 5821 5822 5823 5824 5826 5827 5827 5828 5829 5830 5831 5831 5832 5833 5835 5835 5836 5836 5837 5839 5841 5843 5845 5846 5847 5849 5851 5853 5855 5857 5858 5859 5860 5861 5863 5864 5866 5868 5870 5872 5874 5875 5876 5879 5881 5883 5885 5887 5889 5890 5891 5891 5892 5892 5892 5893 5894 5895 5897 5898 5899 5900 5900 5901 5902 5902 5903 5903 5904 5906 5907 5906 5906 5905 5905
5816 5815 5814 5813 5813 5813 5813 5813 5814 5814 5814 5815 5816 5817 5818 5819 5820 5822 5823 5824 5825 5826 5827 5828 5829 5830 5831 5832 5833 5834 5834 5834 5836 5838 5841 5842 5844 5845 5847 5849 5851 5853 5854 5855 5856 5858 5859 5862 5864 5865 5867 5869 5872 5873 5874 5875 5878 5880 5881 5883 5885 5888 5889 5890 5891 5891 5892 5892 5894 5895 5895 5897 5898 5899 5900 5901 5902 5903 5903 5904 5905 5906 5906 5907 5906 5905 5905 5905
5812 5811 5809 5809 5809 5808 5808 5808 5809 5809 5809 5810 5811 5812 5814 5815 5816 5817 5819 5820 5821 5822 5823 5824 5826 5827 5828 5829 5831 5832 5832 5832 5833 5836 5838 5839 5841 5843 5844 5846 5848 5850 5851 5852 5854 5856 5858 5860 5862 5863 5866 5869 5871 5871 5872 5874 5876 5878 5880 5882 5884 5887 5888 5889 5890 5891 5891 5892 5893 5894 5895 5897 5898 5900 5900 5901 5902 5903 5904 5905 5906 5907 5907 5907 5907 5905 5905 5906
5808 5807 5805 5804 5804 5804 5803 5804 5804 5804 5804 5805 5806 5808 5810 5811 5812 5813 5815 5816 5817 5818 5819 5821 5822 5824 5825 5826 5828 5829 5830 5830 5831 5833 5836 5837 5838 5840 5842 5843 5845 5847 5848 5850 5852 5854 5856 5859 5860 5862 5865 5868 5869 5870 5871 5873 5875 5877 5879 5880 5882 5885 5886 5887 5888 5889 5890 5891 5892 5893 5895 5896 5898 5899 5900 5901 5902 5903 5904 5905 5907 5907 5907 5908 5907 5906 5905 5906
5804 5803 5801 5800 5799 5799 5799 5799 5799 5800 5800 5800 5802 5803 5805 5806 5807 5809 5810 5812 5813 5814 5815 5817 5819 5820 5822 5823 5824 5826 5828 5829 5828 5830 5833 5835 5836 5837 5839 5841 5842 5844 5845 5847 5850 5852 5854 5856 5858 5861 5863 5865 5867 5869 5871 5872 5874 5876 5877 5878 5881 5883 5885 5886 5887 5887 5888 5890 5892 5892 5893 5895 5897 5898 5899 5900 5901 5902 5903 5904 5905 5906 5907 5907 5907 5906 5906 5906
5800 5799 5797 5796 5795 5794 5794 5794 5794 5795 5795 5796 5797 5798 5799 5801 5803 5805 5806 5808 5809 5810 5812 5813 5815 5817 5818 5819 5821 5823 5825 5826 5827 5827 5829 5832 5834 5835 5837 5838 5840 5841 5843 5845 5847 5850 5852 5854 5856 5859 5860 5863 5866 5868 5869 5870 5872 5874 5875 5877 5879 5881 5883 5884 5884 5885 5886 5889 5890 5891 5891 5893 5895 5897 5898 5899 5900 5900 5901 5903 5904 5905 5906 5906 5907 5907 5907 5907
5796 5795 5793 5792 5791 5790 5789 5789 5790 5790 5791 5791 5792 5793 5794 5796 5798 5800 5802 5803 5804 5806 5808 5809 5811 5813 5815 5816 5818 5819 5821 5823 5824 5825 5827 5829 5831 5833 5835 5836 5837 5839 5840 5842 5845 5848 5851 5852 5854 5856 5858 5861 5863 5865 5867 5869 5870 5872 5874 5875 5876 5878 5880 5881 5882 5883 5885 5887 5888 5889 5890 5891 5893 5895 5896 5897 5898 5899 5900 5901 5903 5904 5904 5905 5906 5907 5908 5907
5792 5790 5789 5788 5787 5786 5785 5785 5785 5786 5786 5787 5788 5789 5790 5791 5793 5795 5797 5799 5800 5802 5804 5806 5807 5809 5810 5812 5814 5816 5818 5820 5822 5823 5824 5826 5828 5830 5832 5834 5835 5836 5838 5840 5842 5845 5848 5850 5852 5854 5856 5859 5862 5863 5866 5867 5868 5870 5872 5873 5873 5875 5877 5878 5879 5881 5882 5884 5885 5887 5889 5890 5891 5893 5895 5895 5896 5898 5898 5899 5901 5902 5903 5904 5905 5906 5907 5908
5788 5786 5785 5783 5783 5782 5781 5780 5781 5781 5782 5783 5783 5785 5786 5787 5788 5790 5792 5794 5796 5798 5800 5801 5803 5805 5806 5808 5810 5812 5815 5817 5819 5820 5822 5823 5826 5827 5829 5831 5833 5834 5836 5838 5840 5843 5846 5847 5849 5852 5855 5858 5860 5861 5863 5864 5865 5867 5869 5870 5872 5873 5875 5876 5877 5878 5880 5881 5884 5886 5887 5888 5889 5891 5893 5894 5895 5896 5897 5898 5899 5900 5902 5903 5905 5905 5907 5908
5784 5782 5780 5779 5778 5777 5777 5776 5776 5777 5778 5778 5779 5780 5782 5783 5784 5785 5788 5790 5792 5794 5796 5797 5799 5800 5802 5804 5806 5809 5811 5814 5816 5817 5819 5821 5823 5825 5826 5828 5830 5832 5834 5836 5838 5840 5843 5845 5848 5851 5853 5855 5856 5858 5859 5860 5862 5864 5866 5868 5870 5872 5873 5874 5876 5877 5879 5881 5884 5885 5885 5886 5888 5889 5891 5893 5894 5895 5896 5898 5898 5899 5901 5903 5904 5905 5906 5907
5780 5778 5775 5774 5774 5773 5772 5772 5772 5773 5773 5774 5775 5776 5777 5778 5780 5781 5783 5786 5787 5789 5791 5793 5795 5797 5798 5801 5803 5805 5807 5810 5812 5814 5816 5818 5820 5822 5824 5826 5827 5829 5832 5833 5835 5838 5840 5844 5847 5849 5849 5851 5853 5855 5856 5857 5859 5861 5863 5865 5868 5870 5872 5873 5875 5877 5878 5880 5882 5883 5884 5886 5887 5888 5889 5891 5893 5894 5895 5897 5898 5899 5900 5902 5904 5904 5905 5906
5775 5773 5771 5769 5769 5769 5768 5768 5768 5768 5769 5769 5770 5771 5772 5774 5776 5777 5780 5782 5783 5785 5787 5789 5791 5793 5795 5797 5799 5802 5804 5806 5808 5811 5813 5816 5817 5819 5821 5822 5824 5826 5828 5830 5833 5836 5839 5843 5845 5845 5846 5848 5850 5852 5854 5855 5857 5858 5860 5863 5866 5869 5869 5870 5873 5875 5876 5878 5879 5880 5882 5883 5884 5885 5886 5888 5890 5892 5894 5896 5898 5898 5899 5900 5902 5903 5904 5905
5770 5769 5767 5765 5764 5764 5764 5763 5764 5765 5765 5765 5765 5766 5769 5771 5772 5774 5776 5778 5780 5781 5783 5785 5787 5789 5791 5793 5795 5798 5800 5802 5804 5807 5810 5812 5814 5816 5818 5819 5821 5823 5826 5828 5830 5834 5838 5841 5841 5842 5843 5845 5847 5850 5852 5853 5855 5857 5859 5862 5866 5867 5867 5868 5870 5871 5872 5875 5877 5878 5880 5879 5880 5882 5884 5886 5888 5889 5892 5894 5896 5897 5898 5899 5900 5902 5903 5904
5766 5765 5763 5761 5760 5760 5760 5759 5760 5761 5761 5761 5761 5763 5765 5767 5768 5770 5772 5774 5776 5777 5779 5781 5783 5785 5787 5789 5792 5795 5796 5798 5801 5803 5806 5808 5810 5812 5814 5816 5818 5820 5823 5825 5828 5831 5835 5836 5836 5838 5841 5843 5845 5847 5849 5851 5853 5856 5858 5862 5865 5866 5865 5866 5868 5868 5869 5872 5874 5876 5877 5878 5880 5881 5883 5884 5886 5887 5890 5892 5894 5895 5896 5897 5899 5901 5902 5903
5762 5761 5759 5757 5756 5756 5756 5756 5756 5757 5757 5757 5758 5760 5762 5763 5765 5766 5768 5770 5772 5774 5776 5777 5779 5781 5783 5785 5788 5791 5793 5794 5797 5799 5801 5804 5806 5808 5811 5813 5815 5817 5819 5822 5825 5828 5830 5831 5833 5836 5838 5840 5842 5845 5847 5849 5851 5854 5857 5861 5863 5863 5863 5865 5865 5866 5867 5870 5872 5874 5876 5878 5880 5881 5881 5881 5883 5885 5887 5890 5892 5893 5895 5896 5898 5900 5901 5902
5758 5757 5756 5754 5752 5752 5752 5752 5753 5753 5754 5755 5756 5758 5759 5760 5761 5763 5764 5766 5768 5770 5772 5774 5776 5777 5779 5782 5784 5787 5789 5790 5793 5795 5797 5799 5802 5804 5807 5809 5811 5813 5816 5819 5822 5825 5826 5828 5831 5833 5835 5837 5839 5842 5844 5847 5849 5852 5856 5859 5859 5860 5861 5862 5862 5863 5864 5867 5870 5871 5874 5877 5879 5880 5880 5880 5881 5882 5884 5887 5890 5892 5893 5895 5896 5898 5899 5901
5755 5753 5752 5751 5749 5749 5749 5749 5749 5750 5751 5752 5754 5755 5756 5757 5758 5760 5761 5763 5765 5766 5768 5770 5772 5774 5776 5778 5780 5784 5785 5786 5789 5791 5792 5795 5797 5800 5803 5805 5807 5810 5813 5816 5820 5821 5823 5825 5828 5830 5832 5834 5836 5839 5841 5844 5847 5851 5854 5855 5856 5857 5859 5859 5859 5859 5861 5863 5866 5869 5871 5873 5876 5879 5879 5879 5879 5880 5883 5886 5888 5890 5892 5893 5895 5896 5897 5899
5753 5751 5750 5748 5746 5746 5746 5746 5746 5747 5748 5750 5751 5751 5753 5754 5755 5757 5758 5760 5762 5763 5765 5767 5769 5771 5773 5774 5777 5779 5781 5783 5786 5786 5787 5790 5793 5796 5799 5800 5804 5807 5810 5814 5816 5817 5819 5821 5824 5827 5829 5831 5834 5836 5838 5841 5845 5849 5850 5851 5853 5854 5856 5857 5856 5857 5858 5858 5862 5867 5869 5871 5874 5876 5876 5876 5877 5880 5882 5885 5887 5889 5890 5892 5893 5894 5896 5898
5751 5749 5747 5746 5745 5744 5744 5744 5745 5745 5746 5747 5748 5749 5750 5751 5753 5754 5755 5758 5759 5760 5762 5764 5766 5768 5769 5771 5773 5776 5778 5780 5781 5781 5784 5787 5790 5793 5795 5798 5801 5804 5807 5810 5812 5813 5815 5818 5821 5823 5825 5828 5831 5833 5835 5839 5843 5845 5846 5847 5849 5850 5853 5855 5855 5856 5856 5855 5858 5864 5868 5869 5872 5873 5872 5875 5879 5881 5883 5885 5887 5888 5889 5891 5892 5893 5895 5896
5749 5747 5745 5744 5743 5742 5742 5743 5743 5743 5744 5745 5746 5746 5747 5749 5750 5751 5753 5755 5756 5757 5759 5761 5763 5765 5766 5768 5770 5772 5775 5777 5777 5779 5782 5785 5788 5791 5793 5795 5798 5801 5804 5807 5809 5811 5812 5815 5816 5818 5821 5825 5828 5830 5832 5837 5840 5842 5843 5845 5846 5847 5849 5851 5853 5853 5852 5853 5855 5860 5866 5868 5870 5871 5872 5877 5881 5882 5884 5885 5887 5888 5889 5891 5892 5893 5895 5896
5747 5745 5743 5743 5742 5741 5741 5742 5742 5742 5742 5743 5743 5744 5745 5747 5748 5749 5751 5752 5753 5755 5756 5758 5760 5762 5764 5766 5768 5770 5772 5773 5774 5777 5780 5782 5786 5788 5790 5792 5795 5798 5802 5804 5806 5808 5809 5810 5811 5814 5819 5822 5824 5826 5829 5833 5836 5838 5841 5842 5844 5845 5846 5848 5850 5850 5850 5852 5855 5858 5862 5865 5867 5870 5874 5879 5881 5881 5883 5884 5886 5887 5888 5890 5891 5892 5894 5895
5745 5743 5742 5741 5741 5740 5740 5740 5740 5740 5741 5741 5742 5743 5744 5745 5746 5748 5749 5750 5751 5752 5754 5756 5758 5760 5761 5763 5765 5767 5768 5769 5772 5776 5778 5781 5784 5786 5787 5790 5792 5795 5799 5801 5802 5804 5805 5806 5807 5812 5816 5818 5820 5823 5825 5828 5831 5834 5837 5839 5840 5842 5844 5845 5847 5848 5848 5851 5854 5856 5859 5861 5864 5870 5875 5878 5880 5881 5882 5883 5884 5885 5886 5888 5889 5891 5892 5893
5743 5741 5740 5739 5739 5738 5738 5739 5739 5739 5739 5740 5740 5741 5743 5744 5745 5747 5748 5749 5750 5751 5753 5754 5756 5758 5759 5761 5762 5764 5765 5768 5772 5775 5777 5779 5781 5783 5785 5788 5790 5793 5795 5797 5798 5799 5802 5803 5804 5809 5811 5813 5816 5819 5821 5824 5826 5830 5833 5835 5837 5838 5841 5843 5844 5846 5848 5850 5853 5854 5856 5858 5862 5869 5874 5878 5880 5880 5881 5882 5883 5884 5885 5885 5886 5888 5889 5891
5741 5739 5738 5738 5738 5737 5737 5737 5738 5738 5739 5739 5739 5740 5742 5743 5745 5746 5748 5749 5751 5752 5753 5754 5756 5757 5758 5759 5760 5761 5763 5766 5770 5773 5775 5776 5778 5780 5783 5785 5787 5789 5792 5794 5795 5796 5798 5799 5801 5804 5806 5808 5812 5815 5818 5820 5822 5825 5828 5831 5833 5835 5837 5840 5842 5845 5847 5849 5850 5851 5853 5855 5860 5867 5874 5877 5877 5877 5878 5880 5881 5883 5883 5883 5884 5885 5887 5889
5739 5738 5737 5737 5736 5736 5736 5736 5737 5738 5738 5738 5739 5740 5742 5743 5744 5746 5747 5749 5750 5752 5753 5754 5755 5755 5756 5758 5758 5760 5762 5764 5767 5770 5772 5773 5775 5777 5780 5782 5784 5786 5788 5790 5792 5794 5795 5795 5798 5800 5802 5804 5807 5811 5814 5816 5818 5820 5823 5827 5830 5831 5834 5837 5839 5842 5844 5846 5847 5848 5850 5853 5857 5863 5868 5870 5870 5872 5875 5878 5879 5881 5882 5883 5884 5885 5886 5888
5739 5737 5736 5736 5735 5735 5735 5736 5737 5737 5738 5738 5739 5740 5741 5742 5743 5745 5746 5748 5749 5751 5752 5753 5753 5754 5755 5756 5757 5758 5760 5762 5764 5767 5769 5770 5772 5774 5777 5779 5781 5783 5785 5788 5790 5791 5792 5793 5795 5797 5798 5800 5803 5806 5809 5812 5813 5815 5819 5824 5827 5829 5833 5835 5837 5839 5841 5843 5845 5846 5848 5850 5854 5858 5861 5864 5865 5868 5870 5873 5876 5879 5880 5882 5884 5885 5886 5887
5739 5737 5736 5735 5735 5735 5735 5736 5736 5737 5738 5739 5740 5740 5741 5742 5743 5744 5745 5747 5748 5750 5751 5752 5752 5752 5753 5755 5755 5756 5759 5761 5762 5764 5766 5767 5769 5771 5774 5776 5778 5780 5782 5785 5787 5788 5790 5791 5793 5794 5795 5796 5799 5801 5805 5807 5809 5812 5815 5820 5823 5826 5829 5831 5834 5836 5837 5840 5842 5844 5846 5847 5849 5853 5857 5860 5863 5865 5867 5869 5871 5873 5875 5879 5882 5884 5885 5886
5739 5737 5736 5735 5735 5735 5735 5735 5736 5736 5738 5739 5739 5740 5741 5741 5742 5743 5745 5746 5747 5748 5750 5751 5750 5751 5752 5754 5754 5756 5758 5760 5761 5763 5764 5766 5768 5770 5772 5774 5776 5777 5779 5781 5784 5786 5788 5789 5790 5791 5792 5793 5795 5797 5800 5802 5806 5809 5811 5815 5819 5821 5824 5827 5830 5832 5834 5836 5838 5842 5843 5842 5845 5850 5853 5856 5859 5862 5864 5866 5867 5868 5870 5875 5880 5883 5884 5885
5740 5738 5737 5736 5736 5735 5735 5735 5735 5736 5737 5738 5738 5739 5741 5741 5742 5743 5744 5745 5746 5747 5748 5749 5749 5749 5751 5753 5754 5755 5757 5758 5760 5762 5763 5765 5767 5769 5771 5772 5774 5776 5778 5780 5781 5783 5785 5786 5788 5789 5790 5790 5791 5793 5795 5798 5802 5806 5808 5811 5814 5817 5819 5822 5825 5828 5830 5832 5834 5838 5840 5840 5842 5846 5849 5852 5855 5857 5860 5863 5865 5867 5868 5871 5875 5879 5882 5884
5741 5740 5738 5737 5737 5736 5736 5736 5736 5736 5737 5737 5738 5739 5740 5741 5742 5743 5744 5744 5745 5746 5747 5747 5748 5748 5749 5751 5753 5754 5755 5757 5759 5760 5762 5763 5765 5767 5769 5770 5772 5774 5776 5778 5780 5781 5782 5784 5785 5786 5787 5788 5789 5790 5792 5796 5799 5802 5804 5806 5809 5813 5815 5818 5820 5823 5826 5828 5830 5834 5836 5836 5838 5841 5845 5847 5850 5853 5856 5860 5863 5865 5868 5870 5871 5874 5878 5881
5743 5741 5740 5739 5738 5738 5737 5737 5737 5737 5737 5738 5738 5739 5740 5740 5742 5743 5743 5743 5743 5744 5745 5746 5747 5747 5748 5750 5751 5752 5754 5755 5757 5759 5760 5761 5763 5764 5766 5768 5769 5771 5773 5774 5776 5778 5779 5781 5783 5784 5784 5785 5786 5787 5789 5793 5796 5797 5799 5802 5805 5808 5811 5813 5816 5819 5822 5824 5826 5828 5831 5832 5834 5837 5840 5842 5845 5849 5852 5856 5859 5862 5865 5868 5870 5872 5875 5878
5745 5743 5742 5740 5739 5739 5738 5738 5737 5738 5738 5738 5739 5739 5740 5740 5741 5742 5742 5742 5743 5744 5744 5745 5746 5746 5747 5749 5750 5751 5752 5753 5755 5756 5757 5758 5759 5761 5763 5765 5766 5767 5769 5770 5772 5774 5776 5778 5779 5780 5780 5781 5783 5784 5786 5789 5791 5793 5796 5798 5800 5803 5806 5809 5811 5814 5817 5820 5821 5824 5826 5828 5831 5834 5836 5838 5841 5845 5848 5852 5855 5858 5862 5865 5868 5870 5873 5875
5746 5745 5743 5742 5741 5740 5740 5739 5739 5739 5739 5739 5739 5739 5739 5740 5740 5741 5741 5742 5742 5743 5744 5745 5745 5745 5746 5747 5748 5749 5750 5751 5753 5754 5755 5755 5756 5758 5760 5762 5763 5764 5766 5767 5768 5770 5772 5774 5776 5777 5777 5778 5780 5781 5783 5786 5788 5790 5792 5794 5797 5799 5802 5805 5807 5810 5813 5815 5817 5820 5822 5824 5828 5831 5832 5834 5837 5841 5845 5849 5852 5854 5859 5863 5865 5868 5871 5873
5747 5746 5744 5743 5742 5742 5741 5740 5740 5740 5740 5740 5740 5740 5740 5740 5740 5741 5741 5742 5742 5742 5743 5744 5744 5745 5745 5745 5746 5747 5748 5749 5750 5751 5752 5753 5754 5755 5757 5758 5760 5761 5763 5764 5765 5767 5769 5771 5773 5773 5774 5775 5776 5778 5780 5782 5784 5786 5789 5791 5793 5795 5798 5801 5803 5806 5809 5811 5813 5816 5817 5819 5825 5828 5829 5831 5835 5838 5841 5845 5848 5851 5855 5859 5861 5864 5866 5869
5747 5746 5745 5743 5743 5743 5742 5742 5742 5742 5741 5741 5740 5740 5740 5740 5740 5741 5741 5741 5742 5742 5742 5743 5743 5744 5744 5744 5744 5745 5746 5747 5748 5749 5750 5751 5751 5752 5754 5755 5757 5758 5760 5761 5763 5764 5766 5767 5769 5770 5770 5771 5773 5775 5777 5778 5780 5782 5785 5787 5789 5792 5795 5797 5800 5802 5804 5806 5809 5811 5813 5816 5822 5825 5826 5829 5833 5836 5838 5841 5844 5848 5851 5854 5857 5859 5860 5861
5749 5747 5745 5744 5743 5743 5743 5743 5743 5743 5742 5741 5741 5741 5741 5741 5741 5741 5741 5741 5741 5741 5741 5741 5742 5743 5743 5744 5744 5744 5744 5745 5746 5747 5748 5748 5749 5750 5751 5752 5754 5755 5757 5758 5760 5761 5762 5764 5766 5767 5768 5769 5770 5772 5773 5775 5776 5779 5781 5783 5786 5788 5791 5793 5796 5798 5800 5803 5805 5807 5810 5813 5818 5821 5822 5826 5831 5833 5835 5837 5840 5843 5847 5850 5853 5856 5856 5857
5750 5748 5747 5745 5744 5744 5744 5743 5743 5743 5742 5742 5741 5741 5741 5741 5740 5740 5740 5741 5741 5741 5741 5740 5741 5741 5742 5742 5743 5743 5743 5743 5743 5744 5745 5746 5747 5748 5748 5749 5750 5752 5754 5755 5757 5758 5759 5761 5762 5764 5765 5767 5768 5768 5769 5771 5773 5776 5778 5781 5783 5785 5787 5790 5792 5794 5796 5799 5801 5803 5806 5810 5815 5818 5819 5823 5827 5829 5831 5835 5837 5839 5842 5845 5849 5852 5854 5855
5751 5749 5747 5746 5745 5744 5744 5743 5743 5742 5742 5741 5741 5741 5741 5740 5740 5740 5739 5739 5739 5740 5740 5739 5739 5739 5740 5740 5741 5741 5741 5741 5741 5742 5742 5743 5744 5745 5745 5746 5747 5749 5750 5752 5754 5755 5756 5757 5758 5760 5761 5764 5764 5765 5766 5768 5770 5773 5776 5778 5780 5782 5784 5786 5788 5790 5792 5794 5797 5799 5802 5807 5812 5814 5816 5819 5823 5825 5828 5831 5834 5836 5838 5840 5844 5847 5849 5852
5752 5750 5749 5747 5745 5744 5744 5743 5743 5742 5741 5741 5740 5740 5740 5740 5739 5739 5738 5738 5738 5738 5738 5738 5738 5737 5737 5738 5738 5739 5739 5739 5739 5739 5740 5740 5741 5741 5742 5743 5743 5745 5746 5748 5749 5751 5752 5753 5754 5755 5756 5758 5761 5762 5763 5764 5766 5769 5772 5774 5776 5778 5779 5781 5782 5784 5786 5790 5794 5797 5800 5804 5808 5810 5812 5815 5818 5821 5823 5827 5830 5832 5834 5836 5838 5840 5844 5847
5754 5752 5750 5749 5747 5745 5744 5743 5742 5742 5741 5741 5740 5740 5740 5739 5739 5738 5738 5737 5737 5736 5736 5736 5735 5735 5735 5735 5736 5736 5736 5737 5737 5737 5737 5738 5738 5739 5739 5739 5740 5741 5742 5744 5745 5746 5748 5748 5749 5750 5751 5753 5755 5758 5760 5762 5763 5765 5768 5770 5771 5772 5773 5775 5777 5780 5783 5787 5791 5795 5799 5800 5801 5803 5807 5810 5813 5816 5818 5821 5825 5828 5830 5832 5834 5835 5838 5841
5755 5753 5752 5750 5748 5746 5745 5743 5743 5742 5742 5741 5740 5740 5739 5739 5738 5737 5737 5736 5735 5735 5734 5734 5733 5733 5732 5733 5733 5733 5733 5734 5734 5734 5734 5735 5735 5736 5736 5736 5737 5738 5738 5739 5740 5741 5742 5743 5744 5745 5746 5747 5749 5752 5755 5757 5759 5762 5763 5763 5765 5767 5768 5770 5773 5776 5779 5783 5787 5791 5794 5793 5793 5797 5802 5804 5808 5811 5813 5816 5820 5823 5825 5827 5829 5831 5833 5836
5756 5754 5753 5751 5749 5747 5746 5744 5743 5742 5742 5741 5741 5740 5739 5738 5738 5737 5736 5735 5734 5733 5732 5732 5731 5731 5730 5730 5730 5730 5730 5731 5731 5731 5731 5731 5731 5732 5733 5733 5734 5734 5735 5735 5736 5737 5738 5738 5739 5740 5741 5741 5742 5746 5748 5751 5755 5757 5756 5756 5758 5760 5762 5765 5768 5770 5774 5778 5782 5785 5787 5787 5787 5791 5795 5797 5801 5805 5807 5810 5813 5815 5819 5821 5823 5826 5829 5830